Flag for Germany Weather past 2 weeks in Soltau, Lower Saxony, Germany

Now
36 °F

Partly sunny.


Feels Like: 25 °F
Forecast: 30 / 35 °F
Wind: 17 mph from Southwest

Location: Fassberg

Current Time: Jan 29, 2015 at 11:42:36 AM

Latest Report: Jan 29, 2015 at 10:20 AM


Visibility: N/A

Pressure: 29.12 "Hg

Humidity: 75%

Dew point: 28 °F

Location of SoltauLocation

Historic Weather in Soltau — Graph

°F

Soltau temperature yesterday

Maximum temperature yesterday: 41 °F (at 12:20 PM)
Minimum temperature yesterday: 36 °F (at 12:20 AM)
Average temperature yesterday: 38 °F

Past Weeks' High & Low Weather Summary

 TemperatureHumidityPressure
High50 °F (Jan 15, 5:20 PM)100% (Jan 21, 1:20 AM)30.30 "Hg (Jan 21, 1:20 AM)
Low25 °F (Jan 21, 8:20 AM)57% (Jan 16, 12:00 PM)29.12 "Hg (Jan 29, 9:20 AM)
Average35 °F87%29.91 "Hg
* Reported Jan 14 10:20 AM — Jan 29 10:20 AM, Soltau, Weather by CustomWeather, © 2014

Note: Actual official high and low records may vary slightly from our data, if they occured in-between our weather recording intervals... More about our weather records

Advertising

Soltau weather history for previous 24 hours

 ConditionsComfort  
Time TempWeatherWind HumidityBarometerVisibility
10:20 AM
Jan 29
36 °FPartly sunny.17 mph75%29.12 "HgN/A
9:54 AM34 °FPartly sunny.18 mph87%29.12 "HgN/A
9:20 AM36 °FSnow flurries. Partly sunny.20 mph75%29.12 "Hg5 mi
8:20 AM36 °FPartly sunny.18 mph75%29.15 "HgN/A
7:20 AM36 °FPassing clouds.22 mph75%29.18 "HgN/A
6:20 AM36 °FPartly cloudy.17 mph75%29.18 "HgN/A
5:20 AM36 °FPassing clouds.16 mph75%29.21 "HgN/A
4:20 AM36 °FPassing clouds.16 mph81%29.24 "HgN/A
3:20 AM34 °FSprinkles. Partly cloudy.15 mph93%29.24 "Hg5 mi
2:58 AM34 °FSnow flurries. Passing clouds.6 mph93%29.24 "Hg3 mi
2:20 AM36 °FSnow flurries. Partly cloudy.20 mph87%29.24 "Hg4 mi
1:20 AM36 °FSprinkles. Passing clouds.20 mph87%29.24 "HgN/A
12:20 AM36 °FPassing clouds.17 mph87%29.24 "HgN/A
11:20 PM
Jan 28
36 °FPassing clouds.16 mph87%29.24 "HgN/A
10:20 PM36 °FPassing clouds.15 mph93%29.24 "HgN/A
9:56 PM37 °FRain showers. Passing clouds.20 mph87%29.24 "Hg2 mi
9:20 PM37 °FSprinkles. Passing clouds.18 mph87%29.24 "Hg5 mi
8:20 PM37 °FLight rain. Passing clouds.18 mph93%29.24 "Hg4 mi
7:20 PM37 °FLight rain. Passing clouds.17 mph93%29.24 "Hg5 mi
6:20 PM37 °FRain. Passing clouds.20 mph93%29.27 "Hg4 mi
5:48 PM39 °FRain. Fog.17 mph87%29.30 "Hg2 mi
5:20 PM39 °FLight rain. Partly cloudy.18 mph81%29.33 "HgN/A
4:58 PM41 °FLight rain. Passing clouds.20 mph76%29.36 "Hg4 mi
4:20 PM41 °FPartly sunny.22 mph76%29.39 "HgN/A
3:20 PM41 °FPartly sunny.16 mph76%29.45 "HgN/A
2:20 PM41 °FPartly sunny.20 mph76%29.53 "HgN/A
1:20 PM41 °FLight rain. Broken clouds.17 mph76%29.56 "HgN/A
12:20 PM41 °FBroken clouds.15 mph76%29.65 "HgN/A
11:20 AM39 °FPartly sunny.16 mph87%29.71 "HgN/A
Weather by CustomWeather, © 2014

See weather overviewHow to use our weather pages